Flag for Sweden Weather past 2 weeks in Uppsala, Sweden

Now
34 °F

Clear.


Feels Like: 30 °F
Forecast: 40 / 48 °F
Wind: 5 mph from West

Location: Stockholm / Arlanda

Current Time: Apr 28, 2015 at 4:09:47 AM

Latest Report: Apr 28, 2015 at 3:20 AM


Visibility: 10 mi

Pressure: 29.65 "Hg

Humidity: 75%

Dew point: 27 °F

Location of UppsalaLocation

Historic Weather in Uppsala — Graph

°F

Uppsala temperature yesterday

Maximum temperature yesterday: 57 °F (at 2:50 PM)
Minimum temperature yesterday: 36 °F (at 12:20 AM)
Average temperature yesterday: 47 °F

Past Weeks' High & Low Weather Summary

 TemperatureHumidityPressure
High61 °F (Apr 19, 3:50 PM)100% (Apr 15, 12:20 AM)30.24 "Hg (Apr 15, 12:20 AM)
Low30 °F (Apr 18, 4:20 AM)21% (Apr 26, 4:50 PM)29.33 "Hg (Apr 15, 8:50 PM)
Average45 °F62%29.79 "Hg
* Reported Apr 13 2:20 AM — Apr 28 2:50 AM, Uppsala, Weather by CustomWeather, © 2015

Note: Actual official high and low records may vary slightly from our data, if they occured in-between our weather recording intervals... More about our weather records

Advertising

Uppsala weather history for previous 24 hours

 ConditionsComfort  
Time TempWeatherWind HumidityBarometerVisibility
2:50 AM
Tue, Apr 28
36 °FClear.5 mph70%29.65 "Hg10 mi
2:20 AM36 °FClear.6 mph70%29.65 "Hg10 mi
1:50 AM36 °FClear.6 mph75%29.65 "Hg10 mi
1:20 AM37 °FClear.5 mph70%29.62 "Hg10 mi
12:50 AM39 °FClear.5 mph65%29.62 "Hg10 mi
12:20 AM39 °FClear.5 mph65%29.62 "Hg10 mi
11:20 PM
Mon, Apr 27
41 °FClear.6 mph70%29.62 "Hg10 mi
10:50 PM45 °FClear.6 mph57%29.62 "Hg10 mi
10:20 PM45 °FClear.6 mph61%29.62 "Hg10 mi
9:50 PM46 °FPassing clouds.5 mph57%29.62 "HgN/A
9:20 PM48 °FSunny.6 mph58%29.62 "Hg10 mi
8:50 PM50 °FSunny.6 mph58%29.59 "Hg10 mi
8:20 PM52 °FPassing clouds.7 mph50%29.59 "HgN/A
7:50 PM52 °FSunny.6 mph41%29.59 "Hg10 mi
7:20 PM54 °FSunny.8 mph35%29.59 "Hg10 mi
6:50 PM55 °FSunny.9 mph33%29.59 "Hg10 mi
6:20 PM55 °FSunny.9 mph31%29.59 "Hg10 mi
5:50 PM57 °FSunny.9 mph29%29.59 "Hg10 mi
5:20 PM55 °FPassing clouds.10 mph28%29.59 "HgN/A
4:50 PM57 °FSunny.10 mph31%29.59 "Hg10 mi
4:20 PM57 °FSunny.14 mph31%29.59 "Hg10 mi
3:50 PM55 °FSunny.12 mph33%29.62 "Hg10 mi
3:20 PM57 °FPassing clouds.12 mph31%29.62 "HgN/A
2:50 PM57 °FSunny.13 mph31%29.62 "Hg10 mi
2:20 PM55 °FPassing clouds.12 mph33%29.62 "HgN/A
1:50 PM55 °FPassing clouds.12 mph36%29.62 "HgN/A
1:20 PM54 °FSunny.9 mph38%29.62 "Hg10 mi
12:50 PM54 °FPassing clouds.10 mph35%29.65 "HgN/A
12:20 PM54 °FSunny.12 mph38%29.65 "Hg10 mi
11:50 AM54 °FSunny.13 mph38%29.65 "Hg10 mi
11:20 AM52 °FSunny.9 mph41%29.65 "Hg10 mi
10:50 AM52 °FSunny.9 mph41%29.65 "Hg10 mi
10:20 AM50 °FPassing clouds.9 mph47%29.65 "HgN/A
9:50 AM50 °FSunny.9 mph47%29.65 "Hg10 mi
9:20 AM48 °FPassing clouds.7 mph58%29.65 "HgN/A
8:50 AM45 °FPassing clouds.6 mph66%29.65 "HgN/A
8:20 AM45 °FSunny.7 mph66%29.65 "Hg10 mi
7:50 AM43 °FSunny.7 mph71%29.65 "Hg10 mi
7:20 AM41 °FSunny.5 mph70%29.65 "Hg10 mi
6:50 AM37 °FSunny.5 mph75%29.65 "Hg10 mi
6:20 AM36 °FSunny.3 mph81%29.65 "Hg10 mi
5:20 AM36 °FClear.5 mph81%29.65 "Hg10 mi
4:50 AM36 °FClear.5 mph81%29.65 "Hg10 mi
4:20 AM36 °FClear.5 mph81%29.65 "Hg10 mi
Weather by CustomWeather, © 2015

See weather overviewHow to use our weather pages